Location: Grisols
(45.0093°N, 3.1167°E)
Time: 07:01:32
(UTC+00:00)

Lacrosse 5 - Pass Details

Date: 21 October 2019
Orbit: 715 x 724 km, 57.0° (Epoch: 12 November)

Event Time Altitude Azimuth Distance (km) Brightness Sun altitude
Rises 18:16:55 0° 310° (NW) 3,124 6.0 -15.5°
Reaches altitude 10° 18:19:18 10° 311° (NW) 2,201 5.1 -15.9°
Maximum altitude 18:24:23 86° 40° (NE) 722 1.8 -16.8°
Enters shadow 18:27:30 24° 129° (SE) 1,465 3.0 -17.4°
